Year,Month,Day,Hour,Minute,Value (Times are PST for temperature in C)
2017,06,23,00,00,15.80
2017,06,23,00,01,15.80
2017,06,23,00,02,15.80
2017,06,23,00,03,15.70
2017,06,23,00,04,15.70
2017,06,23,00,05,15.70
2017,06,23,00,06,15.70
2017,06,23,00,07,15.60
2017,06,23,00,08,15.60
2017,06,23,00,09,15.60
2017,06,23,00,10,15.60
2017,06,23,00,11,15.60
2017,06,23,00,12,15.60
2017,06,23,00,13,15.60
2017,06,23,00,14,15.60
2017,06,23,00,15,15.60
2017,06,23,00,16,15.60
2017,06,23,00,17,15.60
2017,06,23,00,18,15.60
2017,06,23,00,19,15.60
2017,06,23,00,20,15.60
2017,06,23,00,21,15.60
2017,06,23,00,22,15.70
2017,06,23,00,23,15.70
2017,06,23,00,24,15.70
2017,06,23,00,25,15.70
2017,06,23,00,26,15.70
2017,06,23,00,27,15.70
2017,06,23,00,28,15.70
2017,06,23,00,29,15.70
2017,06,23,00,30,15.70
2017,06,23,00,31,15.70
2017,06,23,00,32,15.70
2017,06,23,00,33,15.70
2017,06,23,00,34,15.70
2017,06,23,00,35,15.70
2017,06,23,00,36,15.60
2017,06,23,00,37,15.60
2017,06,23,00,38,15.60
2017,06,23,00,39,15.60
2017,06,23,00,40,15.70
2017,06,23,00,41,15.70
2017,06,23,00,42,15.70
2017,06,23,00,43,15.70
2017,06,23,00,44,15.70
2017,06,23,00,45,15.70
2017,06,23,00,46,15.60
2017,06,23,00,47,15.60
2017,06,23,00,48,15.60
2017,06,23,00,49,15.60
2017,06,23,00,50,15.60
2017,06,23,00,51,15.60
2017,06,23,00,52,15.60
2017,06,23,00,53,15.60
2017,06,23,00,54,15.60
2017,06,23,00,55,15.60
2017,06,23,00,56,15.60
2017,06,23,00,57,15.60
2017,06,23,00,58,15.50
2017,06,23,00,59,15.50
2017,06,23,01,00,15.50
2017,06,23,01,01,15.50
2017,06,23,01,02,15.50
2017,06,23,01,03,15.50
2017,06,23,01,04,15.50
2017,06,23,01,05,15.50
2017,06,23,01,06,15.50
2017,06,23,01,07,15.50
2017,06,23,01,08,15.50
2017,06,23,01,09,15.50
2017,06,23,01,10,15.40
2017,06,23,01,11,15.40
2017,06,23,01,12,15.40
2017,06,23,01,13,15.30
2017,06,23,01,14,15.30
2017,06,23,01,15,15.30
2017,06,23,01,16,15.30
2017,06,23,01,17,15.30
2017,06,23,01,18,15.30
2017,06,23,01,19,15.30
2017,06,23,01,20,15.30
2017,06,23,01,21,15.20
2017,06,23,01,22,15.20
2017,06,23,01,23,15.20
2017,06,23,01,24,15.20
2017,06,23,01,25,15.20
2017,06,23,01,26,15.20
2017,06,23,01,27,15.20
2017,06,23,01,28,15.20
2017,06,23,01,29,15.20
2017,06,23,01,30,15.10
2017,06,23,01,31,15.10
2017,06,23,01,32,15.10
2017,06,23,01,33,15.10
2017,06,23,01,34,15.10
2017,06,23,01,35,15.10
2017,06,23,01,36,15.00
2017,06,23,01,37,15.00
2017,06,23,01,38,14.90
2017,06,23,01,39,14.90
2017,06,23,01,40,14.90
2017,06,23,01,41,14.80
2017,06,23,01,42,14.80
2017,06,23,01,43,14.80
2017,06,23,01,44,14.70
2017,06,23,01,45,14.70
2017,06,23,01,46,14.70
2017,06,23,01,47,14.70
2017,06,23,01,48,14.70
2017,06,23,01,49,14.70
2017,06,23,01,50,14.70
2017,06,23,01,51,14.70
2017,06,23,01,52,14.70
2017,06,23,01,53,14.70
2017,06,23,01,54,14.70
2017,06,23,01,55,14.70
2017,06,23,01,56,14.70
2017,06,23,01,57,14.70
2017,06,23,01,58,14.70
2017,06,23,01,59,14.70
2017,06,23,02,00,14.60
2017,06,23,02,01,14.60
2017,06,23,02,02,14.60
2017,06,23,02,03,14.60
2017,06,23,02,04,14.60
2017,06,23,02,05,14.60
2017,06,23,02,06,14.50
2017,06,23,02,07,14.50
2017,06,23,02,08,14.40
2017,06,23,02,09,14.40
2017,06,23,02,10,14.40
2017,06,23,02,11,14.40
2017,06,23,02,12,14.30
2017,06,23,02,13,14.30
2017,06,23,02,14,14.30
2017,06,23,02,15,14.20
2017,06,23,02,16,14.20
2017,06,23,02,17,14.20
2017,06,23,02,18,14.20
2017,06,23,02,19,14.10
2017,06,23,02,20,14.10
2017,06,23,02,21,14.00
2017,06,23,02,22,14.00
2017,06,23,02,23,13.90
2017,06,23,02,24,13.90
2017,06,23,02,25,13.90
2017,06,23,02,26,13.80
2017,06,23,02,27,13.80
2017,06,23,02,28,13.80
2017,06,23,02,29,13.80
2017,06,23,02,30,13.80
2017,06,23,02,31,13.80
2017,06,23,02,32,13.80
2017,06,23,02,33,13.90
2017,06,23,02,34,13.90
2017,06,23,02,35,13.90
2017,06,23,02,36,13.90
2017,06,23,02,37,14.00
2017,06,23,02,38,14.00
2017,06,23,02,39,14.00
2017,06,23,02,40,14.00
2017,06,23,02,41,14.00
2017,06,23,02,42,14.00
2017,06,23,02,43,14.00
2017,06,23,02,44,14.00
2017,06,23,02,45,14.00
2017,06,23,02,46,14.00
2017,06,23,02,47,14.00
2017,06,23,02,48,14.00
2017,06,23,02,49,14.00
2017,06,23,02,50,13.90
2017,06,23,02,51,13.90
2017,06,23,02,52,13.90
2017,06,23,02,53,13.90
2017,06,23,02,54,13.90
2017,06,23,02,55,13.90
2017,06,23,02,56,13.90
2017,06,23,02,57,13.90
2017,06,23,02,58,13.90
2017,06,23,02,59,13.90
2017,06,23,03,00,13.90
2017,06,23,03,01,13.90
2017,06,23,03,02,13.80
2017,06,23,03,03,13.80
2017,06,23,03,04,13.80
2017,06,23,03,05,13.80
2017,06,23,03,06,13.80
2017,06,23,03,07,13.80
2017,06,23,03,08,13.70
2017,06,23,03,09,13.70
2017,06,23,03,10,13.70
2017,06,23,03,11,13.70
2017,06,23,03,12,13.70
2017,06,23,03,13,13.70
2017,06,23,03,14,13.70
2017,06,23,03,15,13.70
2017,06,23,03,16,13.70
2017,06,23,03,17,13.70
2017,06,23,03,18,13.70
2017,06,23,03,19,13.60
2017,06,23,03,20,13.60
2017,06,23,03,21,13.60
2017,06,23,03,22,13.60
2017,06,23,03,23,13.60
2017,06,23,03,24,13.60
2017,06,23,03,25,13.60
2017,06,23,03,26,13.60
2017,06,23,03,27,13.70
2017,06,23,03,28,13.70
2017,06,23,03,29,13.60
2017,06,23,03,30,13.60
2017,06,23,03,31,13.60
2017,06,23,03,32,13.60
2017,06,23,03,33,13.60
2017,06,23,03,34,13.50
2017,06,23,03,35,13.50
2017,06,23,03,36,13.50
2017,06,23,03,37,13.50
2017,06,23,03,38,13.50
2017,06,23,03,39,13.40
2017,06,23,03,40,13.40
2017,06,23,03,41,13.40
2017,06,23,03,42,13.40
2017,06,23,03,43,13.30
2017,06,23,03,44,13.30
2017,06,23,03,45,13.30
2017,06,23,03,46,13.30
2017,06,23,03,47,13.30
2017,06,23,03,48,13.30
2017,06,23,03,49,13.30
2017,06,23,03,50,13.30
2017,06,23,03,51,13.30
2017,06,23,03,52,13.30
2017,06,23,03,53,13.30
2017,06,23,03,54,13.20
2017,06,23,03,55,13.20
2017,06,23,03,56,13.20
2017,06,23,03,57,13.20
2017,06,23,03,58,13.20
2017,06,23,03,59,13.20
2017,06,23,04,00,13.20
2017,06,23,04,01,13.20
2017,06,23,04,02,13.20
2017,06,23,04,03,13.20
2017,06,23,04,04,13.20
2017,06,23,04,05,13.20
2017,06,23,04,06,13.20
2017,06,23,04,07,13.20
2017,06,23,04,08,13.20
2017,06,23,04,09,13.20
2017,06,23,04,10,13.20
2017,06,23,04,11,13.20
2017,06,23,04,12,13.20
2017,06,23,04,13,13.20
2017,06,23,04,14,13.20
2017,06,23,04,15,13.20
2017,06,23,04,16,13.20
2017,06,23,04,17,13.20
2017,06,23,04,18,13.20
2017,06,23,04,19,13.20
2017,06,23,04,20,13.10
2017,06,23,04,21,13.10
2017,06,23,04,22,13.10
2017,06,23,04,23,13.10
2017,06,23,04,24,13.10
2017,06,23,04,25,13.10
2017,06,23,04,26,13.10
2017,06,23,04,27,13.10
2017,06,23,04,28,13.10
2017,06,23,04,29,13.10
2017,06,23,04,30,13.00
2017,06,23,04,31,13.00
2017,06,23,04,32,13.00
2017,06,23,04,33,12.90
2017,06,23,04,34,12.90
2017,06,23,04,35,12.90
2017,06,23,04,36,12.90
2017,06,23,04,37,12.80
2017,06,23,04,38,12.80
2017,06,23,04,39,12.80
2017,06,23,04,40,12.80
2017,06,23,04,41,12.80
2017,06,23,04,42,12.80
2017,06,23,04,43,12.80
2017,06,23,04,44,12.70
2017,06,23,04,45,12.70
2017,06,23,04,46,12.70
2017,06,23,04,47,12.60
2017,06,23,04,48,12.60
2017,06,23,04,49,12.60
2017,06,23,04,50,12.60
2017,06,23,04,51,12.50
2017,06,23,04,52,12.50
2017,06,23,04,53,12.50
2017,06,23,04,54,12.50
2017,06,23,04,55,12.50
2017,06,23,04,56,12.40
2017,06,23,04,57,12.50
2017,06,23,04,58,12.50
2017,06,23,04,59,12.50
2017,06,23,05,00,12.50
2017,06,23,05,01,12.50
2017,06,23,05,02,12.50
2017,06,23,05,03,12.50
2017,06,23,05,04,12.50
2017,06,23,05,05,12.50
2017,06,23,05,06,12.50
2017,06,23,05,07,12.50
2017,06,23,05,08,12.50
2017,06,23,05,09,12.50
2017,06,23,05,10,12.50
2017,06,23,05,11,12.50
2017,06,23,05,12,12.50
2017,06,23,05,13,12.40
2017,06,23,05,14,12.40
2017,06,23,05,15,12.40
2017,06,23,05,16,12.40
2017,06,23,05,17,12.40
2017,06,23,05,18,12.40
2017,06,23,05,19,12.40
2017,06,23,05,20,12.30
2017,06,23,05,21,12.30
2017,06,23,05,22,12.30
2017,06,23,05,23,12.30
2017,06,23,05,24,12.30
2017,06,23,05,25,12.30
2017,06,23,05,26,12.30
2017,06,23,05,27,12.30
2017,06,23,05,28,12.40
2017,06,23,05,29,12.40
2017,06,23,05,30,12.40
2017,06,23,05,31,12.40
2017,06,23,05,32,12.40
2017,06,23,05,33,12.50
2017,06,23,05,34,12.50
2017,06,23,05,35,12.50
2017,06,23,05,36,12.50
2017,06,23,05,37,12.50
2017,06,23,05,38,12.50
2017,06,23,05,39,12.50
2017,06,23,05,40,12.50
2017,06,23,05,41,12.50
2017,06,23,05,42,12.50
2017,06,23,05,43,12.50
2017,06,23,05,44,12.50
2017,06,23,05,45,12.40
2017,06,23,05,46,12.40
2017,06,23,05,47,12.40
2017,06,23,05,48,12.40
2017,06,23,05,49,12.40
2017,06,23,05,50,12.40
2017,06,23,05,51,12.30
2017,06,23,05,52,12.30
2017,06,23,05,53,12.30
2017,06,23,05,54,12.30
2017,06,23,05,55,12.30
2017,06,23,05,56,12.30
2017,06,23,05,57,12.30
2017,06,23,05,58,12.30
2017,06,23,05,59,12.30
2017,06,23,06,00,12.30
2017,06,23,06,01,12.30
2017,06,23,06,02,12.30
2017,06,23,06,03,12.30
2017,06,23,06,04,12.30
2017,06,23,06,05,12.30
2017,06,23,06,06,12.30
2017,06,23,06,07,12.40
2017,06,23,06,08,12.30
2017,06,23,06,09,12.30
2017,06,23,06,10,12.30
2017,06,23,06,11,12.30
2017,06,23,06,12,12.40
2017,06,23,06,13,12.40
2017,06,23,06,14,12.50
2017,06,23,06,15,12.50
2017,06,23,06,16,12.60
2017,06,23,06,17,12.60
2017,06,23,06,18,12.60
2017,06,23,06,19,12.60
2017,06,23,06,20,12.70
2017,06,23,06,21,12.70
2017,06,23,06,22,12.80
2017,06,23,06,23,12.80
2017,06,23,06,24,12.80
2017,06,23,06,25,12.80
2017,06,23,06,26,12.80
2017,06,23,06,27,12.80
2017,06,23,06,28,12.80
2017,06,23,06,29,12.80
2017,06,23,06,30,12.80
2017,06,23,06,31,12.80
2017,06,23,06,32,12.80
2017,06,23,06,33,12.80
2017,06,23,06,34,12.80
2017,06,23,06,35,12.80
2017,06,23,06,36,12.80
2017,06,23,06,37,12.80
2017,06,23,06,38,12.80
2017,06,23,06,39,12.80
2017,06,23,06,40,12.90
2017,06,23,06,41,12.90
2017,06,23,06,42,12.90
2017,06,23,06,43,12.90
2017,06,23,06,44,12.90
2017,06,23,06,45,12.90
2017,06,23,06,46,12.90
2017,06,23,06,47,12.90
2017,06,23,06,48,12.90
2017,06,23,06,49,12.90
2017,06,23,06,50,12.90
2017,06,23,06,51,12.90
2017,06,23,06,52,12.90
2017,06,23,06,53,12.90
2017,06,23,06,54,12.90
2017,06,23,06,55,12.90
2017,06,23,06,56,13.00
2017,06,23,06,57,13.00
2017,06,23,06,58,13.10
2017,06,23,06,59,13.10
2017,06,23,07,00,13.10
2017,06,23,07,01,13.20
2017,06,23,07,02,13.20
2017,06,23,07,03,13.20
2017,06,23,07,04,13.30
2017,06,23,07,05,13.30
2017,06,23,07,06,13.40
2017,06,23,07,07,13.40
2017,06,23,07,08,13.40
2017,06,23,07,09,13.40
2017,06,23,07,10,13.40
2017,06,23,07,11,13.40
2017,06,23,07,12,13.50
2017,06,23,07,13,13.50
2017,06,23,07,14,13.50
2017,06,23,07,15,13.50
2017,06,23,07,16,13.50
2017,06,23,07,17,13.50
2017,06,23,07,18,13.50
2017,06,23,07,19,13.60
2017,06,23,07,20,13.60
2017,06,23,07,21,13.60
2017,06,23,07,22,13.60
2017,06,23,07,23,13.60
2017,06,23,07,24,13.70
2017,06,23,07,25,13.70
2017,06,23,07,26,13.70
2017,06,23,07,27,13.70
2017,06,23,07,28,13.80
2017,06,23,07,29,13.80
2017,06,23,07,30,13.80
2017,06,23,07,31,13.80
2017,06,23,07,32,13.80
2017,06,23,07,33,13.90
2017,06,23,07,34,13.90
2017,06,23,07,35,13.90
2017,06,23,07,36,13.90
2017,06,23,07,37,13.90
2017,06,23,07,38,13.90
2017,06,23,07,39,13.90
2017,06,23,07,40,13.90
2017,06,23,07,41,13.90
2017,06,23,07,42,13.90
2017,06,23,07,43,13.90
2017,06,23,07,44,13.90
2017,06,23,07,45,13.90
2017,06,23,07,46,13.90
2017,06,23,07,47,13.90
2017,06,23,07,48,13.90
2017,06,23,07,49,13.90
2017,06,23,07,50,14.00
2017,06,23,07,51,14.00
2017,06,23,07,52,14.10
2017,06,23,07,53,14.10
2017,06,23,07,54,14.10
2017,06,23,07,55,14.20
2017,06,23,07,56,14.30
2017,06,23,07,57,14.30
2017,06,23,07,58,14.40
2017,06,23,07,59,14.50
2017,06,23,08,00,14.50
2017,06,23,08,01,14.60
2017,06,23,08,02,14.60
2017,06,23,08,03,14.60
2017,06,23,08,04,14.60
2017,06,23,08,05,14.70
2017,06,23,08,06,14.70
2017,06,23,08,07,14.80
2017,06,23,08,08,14.80
2017,06,23,08,09,14.80
2017,06,23,08,10,14.90
2017,06,23,08,11,15.00
2017,06,23,08,12,15.00
2017,06,23,08,13,15.00
2017,06,23,08,14,15.00
2017,06,23,08,15,15.10
2017,06,23,08,16,15.10
2017,06,23,08,17,15.10
2017,06,23,08,18,15.20
2017,06,23,08,19,15.20
2017,06,23,08,20,15.20
2017,06,23,08,21,15.20
2017,06,23,08,22,15.20
2017,06,23,08,23,15.20
2017,06,23,08,24,15.20
2017,06,23,08,25,15.20
2017,06,23,08,26,15.30
2017,06,23,08,27,15.30
2017,06,23,08,28,15.40
2017,06,23,08,29,15.40
2017,06,23,08,30,15.50
2017,06,23,08,31,15.60
2017,06,23,08,32,15.60
2017,06,23,08,33,15.60
2017,06,23,08,34,15.60
2017,06,23,08,35,15.60
2017,06,23,08,36,15.60
2017,06,23,08,37,15.50
2017,06,23,08,38,15.50
2017,06,23,08,39,15.60
2017,06,23,08,40,15.60
2017,06,23,08,41,15.70
2017,06,23,08,42,15.80
2017,06,23,08,43,15.80
2017,06,23,08,44,15.80
2017,06,23,08,45,15.80
2017,06,23,08,46,15.90
2017,06,23,08,47,15.90
2017,06,23,08,48,16.00
2017,06,23,08,49,16.20
2017,06,23,08,50,16.20
2017,06,23,08,51,16.30
2017,06,23,08,52,16.30
2017,06,23,08,53,16.30
2017,06,23,08,54,16.30
2017,06,23,08,55,16.40
2017,06,23,08,56,16.40
2017,06,23,08,57,16.40
2017,06,23,08,58,16.40
2017,06,23,08,59,16.40
2017,06,23,09,00,16.40
2017,06,23,09,01,16.40
2017,06,23,09,02,16.40
2017,06,23,09,03,16.40
2017,06,23,09,04,16.40
2017,06,23,09,05,16.40
2017,06,23,09,06,16.30
2017,06,23,09,07,16.30
2017,06,23,09,08,16.30
2017,06,23,09,09,16.30
2017,06,23,09,10,16.30
2017,06,23,09,11,16.40
2017,06,23,09,12,16.40
2017,06,23,09,13,16.30
2017,06,23,09,14,16.30
2017,06,23,09,15,16.30
2017,06,23,09,16,16.30
2017,06,23,09,17,16.20
2017,06,23,09,18,16.20
2017,06,23,09,19,16.30
2017,06,23,09,20,16.40
2017,06,23,09,21,16.40
2017,06,23,09,22,16.50
2017,06,23,09,23,16.60
2017,06,23,09,24,16.60
2017,06,23,09,25,16.60
2017,06,23,09,26,16.60
2017,06,23,09,27,16.60
2017,06,23,09,28,16.50
2017,06,23,09,29,16.50
2017,06,23,09,30,16.50
2017,06,23,09,31,16.50
2017,06,23,09,32,16.50
2017,06,23,09,33,16.60
2017,06,23,09,34,16.50
2017,06,23,09,35,16.40
2017,06,23,09,36,16.30
2017,06,23,09,37,16.30
2017,06,23,09,38,16.40
2017,06,23,09,39,16.50
2017,06,23,09,40,16.60
2017,06,23,09,41,16.60
2017,06,23,09,42,16.70
2017,06,23,09,43,16.70
2017,06,23,09,44,16.70
2017,06,23,09,45,16.70
2017,06,23,09,46,16.70
2017,06,23,09,47,16.60
2017,06,23,09,48,16.60
2017,06,23,09,49,16.70
2017,06,23,09,50,16.80
2017,06,23,09,51,16.80
2017,06,23,09,52,16.90
2017,06,23,09,53,17.00
2017,06,23,09,54,17.00
2017,06,23,09,55,17.00
2017,06,23,09,56,17.10
2017,06,23,09,57,17.30
2017,06,23,09,58,17.30
2017,06,23,09,59,17.30
2017,06,23,10,00,17.30
2017,06,23,10,01,17.30
2017,06,23,10,02,17.30
2017,06,23,10,03,17.40
2017,06,23,10,04,17.40
2017,06,23,10,05,17.50
2017,06,23,10,06,17.60
2017,06,23,10,07,17.70
2017,06,23,10,08,17.70
2017,06,23,10,09,17.70
2017,06,23,10,10,17.70
2017,06,23,10,11,17.60
2017,06,23,10,12,17.50
2017,06,23,10,13,17.40
2017,06,23,10,14,17.50
2017,06,23,10,15,17.50
2017,06,23,10,16,17.50
2017,06,23,10,17,17.50
2017,06,23,10,18,17.60
2017,06,23,10,19,17.60
2017,06,23,10,20,17.50
2017,06,23,10,21,17.60
2017,06,23,10,22,17.60
2017,06,23,10,23,17.60
2017,06,23,10,24,17.70
2017,06,23,10,25,17.70
2017,06,23,10,26,17.70
2017,06,23,10,27,17.70
2017,06,23,10,28,17.80
2017,06,23,10,29,17.80
2017,06,23,10,30,17.80
2017,06,23,10,31,17.90
2017,06,23,10,32,17.80
2017,06,23,10,33,17.70
2017,06,23,10,34,17.60
2017,06,23,10,35,17.50
2017,06,23,10,36,17.50
2017,06,23,10,37,17.50
2017,06,23,10,38,17.50
2017,06,23,10,39,17.50
2017,06,23,10,40,17.50
2017,06,23,10,41,17.50
2017,06,23,10,42,17.50
2017,06,23,10,43,17.60
2017,06,23,10,44,17.70
2017,06,23,10,45,17.80
2017,06,23,10,46,17.80
2017,06,23,10,47,17.80
2017,06,23,10,48,17.80
2017,06,23,10,49,17.80
2017,06,23,10,50,18.00
2017,06,23,10,51,18.10
2017,06,23,10,52,18.30
2017,06,23,10,53,18.40
2017,06,23,10,54,18.60
2017,06,23,10,55,18.70
2017,06,23,10,56,18.60
2017,06,23,10,57,18.60
2017,06,23,10,58,18.40
2017,06,23,10,59,18.30
2017,06,23,11,00,18.30
2017,06,23,11,01,18.30
2017,06,23,11,02,18.30
2017,06,23,11,03,18.30
2017,06,23,11,04,18.40
2017,06,23,11,05,18.40
2017,06,23,11,06,18.40
2017,06,23,11,07,18.50
2017,06,23,11,08,18.60
2017,06,23,11,09,18.60
2017,06,23,11,10,18.70
2017,06,23,11,11,18.70
2017,06,23,11,12,18.80
2017,06,23,11,13,18.80
2017,06,23,11,14,18.90
2017,06,23,11,15,19.10
2017,06,23,11,16,19.20
2017,06,23,11,17,19.30
2017,06,23,11,18,19.40
2017,06,23,11,19,19.40
2017,06,23,11,20,19.40
2017,06,23,11,21,19.30
2017,06,23,11,22,19.20
2017,06,23,11,23,19.10
2017,06,23,11,24,19.10
2017,06,23,11,25,19.10
2017,06,23,11,26,19.10
2017,06,23,11,27,19.10
2017,06,23,11,28,19.00
2017,06,23,11,29,18.90
2017,06,23,11,30,18.90
2017,06,23,11,31,19.00
2017,06,23,11,32,19.10
2017,06,23,11,33,19.20
2017,06,23,11,34,19.30
2017,06,23,11,35,19.40
2017,06,23,11,36,19.60
2017,06,23,11,37,19.70
2017,06,23,11,38,19.70
2017,06,23,11,39,19.60
2017,06,23,11,40,19.60
2017,06,23,11,41,19.70
2017,06,23,11,42,19.80
2017,06,23,11,43,19.90
2017,06,23,11,44,20.00
2017,06,23,11,45,20.00
2017,06,23,11,46,20.10
2017,06,23,11,47,20.20
2017,06,23,11,48,20.30
2017,06,23,11,49,20.20
2017,06,23,11,50,20.10
2017,06,23,11,51,20.00
2017,06,23,11,52,19.80
2017,06,23,11,53,19.70
2017,06,23,11,54,19.60
2017,06,23,11,55,19.50
2017,06,23,11,56,19.50
2017,06,23,11,57,19.60
2017,06,23,11,58,19.70
2017,06,23,11,59,19.80
2017,06,23,12,00,19.90
2017,06,23,12,01,20.00
2017,06,23,12,02,20.00
2017,06,23,12,03,19.90
2017,06,23,12,04,19.90
2017,06,23,12,05,19.90
2017,06,23,12,06,19.80
2017,06,23,12,07,19.90
2017,06,23,12,08,20.00
2017,06,23,12,09,20.10
2017,06,23,12,10,20.10
2017,06,23,12,11,20.00
2017,06,23,12,12,19.90
2017,06,23,12,13,19.90
2017,06,23,12,14,20.00
2017,06,23,12,15,20.10
2017,06,23,12,16,20.10
2017,06,23,12,17,20.20
2017,06,23,12,18,20.10
2017,06,23,12,19,20.20
2017,06,23,12,20,20.20
2017,06,23,12,21,20.30
2017,06,23,12,22,20.40
2017,06,23,12,23,20.60
2017,06,23,12,24,20.60
2017,06,23,12,25,20.60
2017,06,23,12,26,20.60
2017,06,23,12,27,20.60
2017,06,23,12,28,20.70
2017,06,23,12,29,20.70
2017,06,23,12,30,20.60
2017,06,23,12,31,20.70
2017,06,23,12,32,20.70
2017,06,23,12,33,20.70
2017,06,23,12,34,20.80
2017,06,23,12,35,20.80
2017,06,23,12,36,20.90
2017,06,23,12,37,21.00
2017,06,23,12,38,21.20
2017,06,23,12,39,21.20
2017,06,23,12,40,21.10
2017,06,23,12,41,21.10
2017,06,23,12,42,21.00
2017,06,23,12,43,21.00
2017,06,23,12,44,20.80
2017,06,23,12,45,20.80
2017,06,23,12,46,21.00
2017,06,23,12,47,21.10
2017,06,23,12,48,21.20
2017,06,23,12,49,21.10
2017,06,23,12,50,21.10
2017,06,23,12,51,21.10
2017,06,23,12,52,21.10
2017,06,23,12,53,21.10
2017,06,23,12,54,21.20
2017,06,23,12,55,21.20
2017,06,23,12,56,21.20
2017,06,23,12,57,21.30
2017,06,23,12,58,21.40
2017,06,23,12,59,21.40
2017,06,23,13,00,21.40
2017,06,23,13,01,21.50
2017,06,23,13,02,21.50
2017,06,23,13,03,21.60
2017,06,23,13,04,21.60
2017,06,23,13,05,21.70
2017,06,23,13,06,21.80
2017,06,23,13,07,21.80
2017,06,23,13,08,21.80
2017,06,23,13,09,21.80
2017,06,23,13,10,21.80
2017,06,23,13,11,21.90
2017,06,23,13,12,21.90
2017,06,23,13,13,21.80
2017,06,23,13,14,21.70
2017,06,23,13,15,21.70
2017,06,23,13,16,21.70
2017,06,23,13,17,21.70
2017,06,23,13,18,21.70
2017,06,23,13,19,21.70
2017,06,23,13,20,21.70
2017,06,23,13,21,21.80
2017,06,23,13,22,22.00
2017,06,23,13,23,22.10
2017,06,23,13,24,22.20
2017,06,23,13,25,22.30
2017,06,23,13,26,22.30
2017,06,23,13,27,22.30
2017,06,23,13,28,22.30
2017,06,23,13,29,22.40
2017,06,23,13,30,22.40
2017,06,23,13,31,22.40
2017,06,23,13,32,22.40
2017,06,23,13,33,22.40
2017,06,23,13,34,22.30
2017,06,23,13,35,22.30
2017,06,23,13,36,22.30
2017,06,23,13,37,22.40
2017,06,23,13,38,22.40
2017,06,23,13,39,22.40
2017,06,23,13,40,22.40
2017,06,23,13,41,22.40
2017,06,23,13,42,22.30
2017,06,23,13,43,22.30
2017,06,23,13,44,22.30
2017,06,23,13,45,22.40
2017,06,23,13,46,22.50
2017,06,23,13,47,22.40
2017,06,23,13,48,22.40
2017,06,23,13,49,22.40
2017,06,23,13,50,22.40
2017,06,23,13,51,22.40
2017,06,23,13,52,22.40
2017,06,23,13,53,22.50
2017,06,23,13,54,22.50
2017,06,23,13,55,22.40
2017,06,23,13,56,22.30
2017,06,23,13,57,22.30
2017,06,23,13,58,22.40
2017,06,23,13,59,22.50
2017,06,23,14,00,22.60
2017,06,23,14,01,22.80
2017,06,23,14,02,22.90
2017,06,23,14,03,22.90
2017,06,23,14,04,23.00
2017,06,23,14,05,23.10
2017,06,23,14,06,23.30
2017,06,23,14,07,23.30
2017,06,23,14,08,23.40
2017,06,23,14,09,23.40
2017,06,23,14,10,23.50
2017,06,23,14,11,23.60
2017,06,23,14,12,23.70
2017,06,23,14,13,23.70
2017,06,23,14,14,23.70
2017,06,23,14,15,23.60
2017,06,23,14,16,23.50
2017,06,23,14,17,23.50
2017,06,23,14,18,23.50
2017,06,23,14,19,23.60
2017,06,23,14,20,23.70
2017,06,23,14,21,23.80
2017,06,23,14,22,23.90
2017,06,23,14,23,23.90
2017,06,23,14,24,24.00
2017,06,23,14,25,23.90
2017,06,23,14,26,23.90
2017,06,23,14,27,23.90
2017,06,23,14,28,23.70
2017,06,23,14,29,23.70
2017,06,23,14,30,23.50
2017,06,23,14,31,23.50
2017,06,23,14,32,23.50
2017,06,23,14,33,23.50
2017,06,23,14,34,23.60
2017,06,23,14,35,23.60
2017,06,23,14,36,23.70
2017,06,23,14,37,23.70
2017,06,23,14,38,23.80
2017,06,23,14,39,23.90
2017,06,23,14,40,24.00
2017,06,23,14,41,24.10
2017,06,23,14,42,24.10
2017,06,23,14,43,24.10
2017,06,23,14,44,24.10
2017,06,23,14,45,24.10
2017,06,23,14,46,24.10
2017,06,23,14,47,24.20
2017,06,23,14,48,24.20
2017,06,23,14,49,24.30
2017,06,23,14,50,24.50
2017,06,23,14,51,24.60
2017,06,23,14,52,24.60
2017,06,23,14,53,24.60
2017,06,23,14,54,24.70
2017,06,23,14,55,24.60
2017,06,23,14,56,24.60
2017,06,23,14,57,24.60
2017,06,23,14,58,24.60
2017,06,23,14,59,24.70
2017,06,23,15,00,24.60
2017,06,23,15,01,24.60
2017,06,23,15,02,24.60
2017,06,23,15,03,24.50
2017,06,23,15,04,24.50
2017,06,23,15,05,24.50
2017,06,23,15,06,24.50
2017,06,23,15,07,24.50
2017,06,23,15,08,24.40
2017,06,23,15,09,24.50
2017,06,23,15,10,24.40
2017,06,23,15,11,24.50
2017,06,23,15,12,24.50
2017,06,23,15,13,24.60
2017,06,23,15,14,24.60
2017,06,23,15,15,24.60
2017,06,23,15,16,24.70
2017,06,23,15,17,24.90
2017,06,23,15,18,25.00
2017,06,23,15,19,25.20
2017,06,23,15,20,25.20
2017,06,23,15,21,25.20
2017,06,23,15,22,25.20
2017,06,23,15,23,25.30
2017,06,23,15,24,25.30
2017,06,23,15,25,25.30
2017,06,23,15,26,25.30
2017,06,23,15,27,25.40
2017,06,23,15,28,25.50
2017,06,23,15,29,25.60
2017,06,23,15,30,25.70
2017,06,23,15,31,25.80
2017,06,23,15,32,25.80
2017,06,23,15,33,25.90
2017,06,23,15,34,25.90
2017,06,23,15,35,26.00
2017,06,23,15,36,26.00
2017,06,23,15,37,25.90
2017,06,23,15,38,25.90
2017,06,23,15,39,25.80
2017,06,23,15,40,25.80
2017,06,23,15,41,25.70
2017,06,23,15,42,25.70
2017,06,23,15,43,25.60
2017,06,23,15,44,25.50
2017,06,23,15,45,25.50
2017,06,23,15,46,25.60
2017,06,23,15,47,25.60
2017,06,23,15,48,25.70
2017,06,23,15,49,25.70
2017,06,23,15,50,25.70
2017,06,23,15,51,25.80
2017,06,23,15,52,25.80
2017,06,23,15,53,25.80
2017,06,23,15,54,25.80
2017,06,23,15,55,25.80
2017,06,23,15,56,25.80
2017,06,23,15,57,25.70
2017,06,23,15,58,25.60
2017,06,23,15,59,25.60
2017,06,23,16,00,25.50
2017,06,23,16,01,25.50
2017,06,23,16,02,25.40
2017,06,23,16,03,25.40
2017,06,23,16,04,25.50
2017,06,23,16,05,25.60
2017,06,23,16,06,25.60
2017,06,23,16,07,25.80
2017,06,23,16,08,25.90
2017,06,23,16,09,26.00
2017,06,23,16,10,26.10
2017,06,23,16,11,26.20
2017,06,23,16,12,26.20
2017,06,23,16,13,26.30
2017,06,23,16,14,26.30
2017,06,23,16,15,26.40
2017,06,23,16,16,26.50
2017,06,23,16,17,26.60
2017,06,23,16,18,26.70
2017,06,23,16,19,26.60
2017,06,23,16,20,26.60
2017,06,23,16,21,26.50
2017,06,23,16,22,26.50
2017,06,23,16,23,26.60
2017,06,23,16,24,26.60
2017,06,23,16,25,26.50
2017,06,23,16,26,26.50
2017,06,23,16,27,26.50
2017,06,23,16,28,26.60
2017,06,23,16,29,26.60
2017,06,23,16,30,26.60
2017,06,23,16,31,26.60
2017,06,23,16,32,26.50
2017,06,23,16,33,26.50
2017,06,23,16,34,26.40
2017,06,23,16,35,26.30
2017,06,23,16,36,26.30
2017,06,23,16,37,26.30
2017,06,23,16,38,26.20
2017,06,23,16,39,26.10
2017,06,23,16,40,26.20
2017,06,23,16,41,26.30
2017,06,23,16,42,26.40
2017,06,23,16,43,26.50
2017,06,23,16,44,26.70
2017,06,23,16,45,26.80
2017,06,23,16,46,26.90
2017,06,23,16,47,27.00
2017,06,23,16,48,27.00
2017,06,23,16,49,26.90
2017,06,23,16,50,26.90
2017,06,23,16,51,26.80
2017,06,23,16,52,26.80
2017,06,23,16,53,26.60
2017,06,23,16,54,26.50
2017,06,23,16,55,26.40
2017,06,23,16,56,26.30
2017,06,23,16,57,26.30
2017,06,23,16,58,26.30
2017,06,23,16,59,26.30
2017,06,23,17,00,26.30
2017,06,23,17,01,26.30
2017,06,23,17,02,26.30
2017,06,23,17,03,26.40
2017,06,23,17,04,26.50
2017,06,23,17,05,26.40
2017,06,23,17,06,26.30
2017,06,23,17,07,26.30
2017,06,23,17,08,26.30
2017,06,23,17,09,26.30
2017,06,23,17,10,26.30
2017,06,23,17,11,26.40
2017,06,23,17,12,26.40
2017,06,23,17,13,26.40
2017,06,23,17,14,26.30
2017,06,23,17,15,26.30
2017,06,23,17,16,26.40
2017,06,23,17,17,26.40
2017,06,23,17,18,26.50
2017,06,23,17,19,26.50